Regional Weather Roundup
Issued by NWS

Home | Current Version | Previous Version | Graphics & Text | Print | Product List | Glossary On
Versions: 1 2 3 4 5 6 7 8 9 10 11 12 13 14 15 16 17 18 19 20 21 22 23 24 25 26 27 28 29 30 31 32 33 34 35 36 37 38 39 40 41 42 43 44 45 46 47 48 49 50
000
ASUS43 KLMK 201610
RWRKY
KENTUCKY REGIONAL WEATHER ROUNDUP
NATIONAL WEATHER SERVICE LOUISVILLE KY
1200 PM EDT WED SEP 20 2017

NOTE "FAIR" INDICATES FEW OR NO CLOUDS BELOW 12,000 FEET
WITH NO SIGNIFICANT WEATHER AND/OR OBSTRUCTIONS TO VISIBILITY.

KYZ001>023-026-027-061>063-070>075-201700-
WESTERN AND SOUTH CENTRAL KENTUCKY

CITY           SKY/WX    TMP DP  RH WIND       PRES   REMARKS
PADUCAH        MOSUNNY   86  72  62 SW7       29.99S HX  92
HENDERSON      SUNNY     85  74  69 VRB5      30.01S HX  92
OWENSBORO      MOSUNNY   85  73  67 S5        30.02F HX  91
HOPKINSVILLE   SUNNY     84  73  69 S6        30.03S HX  90
BOWLING GREEN  SUNNY     83  73  72 CALM      30.05S
GLASGOW        SUNNY     80  69  67 CALM      30.06F
$$

KYZ024-025-028>034-038-045-046-053-201700-
NORTH CENTRAL KENTUCKY

CITY           SKY/WX    TMP DP  RH WIND       PRES   REMARKS
LOUISVILLE/SDF PTSUNNY   80  71  74 SE5       30.04S
LOUISVILLE/LOU MOSUNNY   81  73  76 CALM      30.04S
FORT KNOX      SUNNY     80  71  73 S3        30.03F
$$

KYZ035>037-039>044-047>052-055>060-089>105-201700-
NORTHEAST KENTUCKY

CITY           SKY/WX    TMP DP  RH WIND       PRES   REMARKS
LEXINGTON      SUNNY     80  70  71 SE3       30.07F
COVINGTON      PTSUNNY   78  72  81 SW7       30.05S
FRANKFORT      MOSUNNY   81  70  69 VRB3      30.05S
$$

KYZ054-064>069-076>088-106>120-201700-
SOUTHEAST KENTUCKY

CITY           SKY/WX    TMP DP  RH WIND       PRES   REMARKS
JACKSON        PTSUNNY   75  68  78 CALM      30.10S
LONDON         SUNNY     78  67  68 VRB5      30.10S
SOMERSET       SUNNY     77  64  65 CALM      30.10F
MIDDLESBORO    SUNNY     74  67  77 CALM      30.12S
MONTICELLO     PTSUNNY   81  70  69 VRB6      30.11S
$$




USA.gov is the U.S. government's official web portal to all federal, state and local government web resources and services.